Location: *
(52.2090°N, 4.1550°W)
Time: 18:18:46
(UTC+00:00)

Cosmos 1437 - Pass Details

Date: 19 July 2019
Orbit: 385 x 388 km, 81.2° (Epoch: 23 August)

Event Time Altitude Azimuth Distance (km) Brightness Sun altitude
Exits shadow 23:31:46 25° 106° (ESE) 836 4.0 -16.2°
Maximum altitude 23:32:06 25° 94° (E) 822 4.0 -16.2°
Drops below altitude 10° 23:34:43 10° 36° (NE) 1,425 6.0 -16.3°
Sets 23:36:55 0° 23° (NNE) 2,286 7.4 -16.3°
